Home   Weather   Chetwynd   Past weeks
Flag for Canada

Past Weather in Chetwynd, British Columbia, Canada — Yesterday and Last 2 Weeks

Now
52 °F

Passing clouds.


Feels Like: 49 °F
Forecast: 76 / 52 °F
Wind: 8 mph from Southeast

Location: Fort St John

Current Time: Jun 16, 2019 at 6:03:49 am

Latest Report: Jun 16, 2019 at 5:00 am


Visibility: 50 mi

Pressure: 29.95 "Hg (27.75 "Hg at 636m altitude)

Humidity: 82%

Dew Point: 46 °F

Location of ChetwyndLocation

Past Weather in Chetwynd — Graph

°F

Chetwynd Temperature Yesterday

Maximum temperature yesterday: 75 °F (at 5:00 pm)
Minimum temperature yesterday: 46 °F (at 4:00 am)
Average temperature yesterday: 62 °F

High & Low Weather Summary for the Past Weeks

 TemperatureHumidityPressure
High75 °F (Jun 12, 4:00 pm)100% (Jun 5, 6:38 am)30.23 "Hg (Jun 5, 6:38 am)
Low37 °F (Jun 5, 5:45 am)24% (Jun 2, 4:00 pm)29.67 "Hg (Jun 1, 8:00 pm)
Average55 °F62%29.95 "Hg
* Reported Jun 1 4:00 am — Jun 16 4:00 am, Chetwynd. Weather by CustomWeather, © 2019

Note: Actual official high and low records may vary slightly from our data, if they occured in-between our weather recording intervals... More about our weather records

Advertising

Chetwynd Weather History for the Previous 24 Hours

Scroll right to see more
 ConditionsComfort  
Time TempWeatherWind HumidityBarometerVisibility
4:00 am
Sun, Jun 16
54 °FPassing clouds.8 mph72%29.95 "Hg15 mi
3:00 am54 °FPassing clouds.8 mph72%29.95 "Hg15 mi
2:00 am54 °FPassing clouds.9 mph72%29.95 "Hg15 mi
1:00 am55 °FPassing clouds.8 mph67%29.96 "Hg15 mi
12:00 am55 °FPassing clouds.8 mph67%29.96 "Hg15 mi
11:00 pm
Sat, Jun 15
59 °FPassing clouds.9 mph59%29.96 "Hg15 mi
10:00 pm61 °FPassing clouds.9 mph59%29.96 "Hg60 mi
9:00 pm66 °FPassing clouds.8 mph52%29.96 "Hg60 mi
8:00 pm73 °FPassing clouds.6 mph38%29.96 "Hg60 mi
7:00 pm75 °FPassing clouds.3 mph29%29.96 "Hg60 mi
6:00 pm75 °FPassing clouds.6 mph34%29.97 "Hg60 mi
5:00 pm75 °FPassing clouds.9 mph31%29.98 "Hg60 mi
4:00 pm73 °FPassing clouds.8 mph36%30.00 "Hg60 mi
3:00 pm73 °FPassing clouds.7 mph33%30.00 "Hg60 mi
2:00 pm72 °FPassing clouds.3 mph33%30.02 "Hg60 mi
1:00 pm70 °FPassing clouds.6 mph40%30.03 "Hg60 mi
12:00 pm68 °FPassing clouds.8 mph53%30.03 "Hg60 mi
11:00 am66 °FPassing clouds.7 mph56%30.04 "Hg60 mi
10:00 am64 °FPassing clouds.10 mph60%30.05 "Hg60 mi
9:00 am61 °FSunny.10 mph68%30.05 "Hg60 mi
8:00 am57 °FSunny.9 mph77%30.05 "Hg60 mi
7:00 am54 °FSunny.10 mph82%30.05 "Hg60 mi
6:00 am50 °FSunny.9 mph94%30.05 "Hg60 mi
Weather by CustomWeather, © 2019

See weather overview